Location: Ladrillo (historical)
(32.8195°N, 117.2231°W)
Time: 12:09:24
(UTC+00:00)

Vanguard 2 Rocket - Visible Passes

Search period start: 07 March 2021 00:00
Search period end: 17 March 2021 00:00
Orbit: 554 x 3325 km, 32.9° (Epoch: 06 March)

Date Brightness Start Highest point End Pass type
(mag) Time Alt. Az. Time Alt. Az. Time Alt. Az.
07 Mar 8.4 10:58:35 35° E 10:58:35 35° E 11:03:35 10° E visible
07 Mar 7.7 13:04:23 20° W 13:09:33 89° N 13:21:42 10° E visible
08 Mar 9.8 10:02:19 10° E 10:02:19 10° E 10:02:22 10° E visible
08 Mar 7.0 12:08:06 59° W 12:09:30 89° NNE 12:19:23 10° E visible
09 Mar 7.9 11:11:51 45° E 11:11:51 45° E 11:17:38 10° E visible
09 Mar 7.8 13:17:38 14° W 13:23:36 84° S 13:35:42 10° ESE visible
10 Mar 9.5 10:15:34 14° E 10:15:34 14° E 10:16:29 10° E visible
10 Mar 7.2 12:21:22 44° W 12:23:35 90° NNW 12:33:28 10° E visible
11 Mar 7.3 11:25:06 59° E 11:25:06 59° E 11:31:43 10° E visible
11 Mar 7.9 13:31:07 10° W 13:37:38 71° SSW 13:49:31 10° ESE visible
12 Mar 9.2 10:28:52 17° E 10:28:52 17° E 10:30:33 10° E visible
12 Mar 7.2 12:34:40 33° W 12:37:39 81° S 12:47:27 10° ESE visible
13 Mar 6.9 11:38:26 76° E 11:38:26 76° E 11:45:47 10° E visible
14 Mar 8.9 10:42:14 22° E 10:42:14 22° E 10:44:37 10° E visible
14 Mar 7.3 12:48:02 24° W 12:51:41 65° SSW 13:01:16 10° ESE visible
15 Mar 6.6 11:51:51 76° SSW 11:51:59 77° S 11:59:46 10° ESE visible
16 Mar 8.5 10:55:41 26° E 10:55:41 26° E 10:58:42 10° E visible
16 Mar 7.7 13:01:29 17° W 13:05:44 47° SSW 13:14:42 10° SE visible
